Location: Unspecified
(52.4292°N, 19.3359°E)
Time: 01:06:04
(UTC+02:00)

A-11 Canister half - Pass Details

Date: 23 May 2024
Orbit: 1514 x 1685 km, 47.2° (Epoch: 20 June)

Event Time Altitude Azimuth Distance (km) Brightness Sun altitude
Rises 00:44:23 0° 181° (S) 4,786 - -16.9°
Reaches altitude 10° 00:49:10 10° 161° (SSE) 3,771 - -16.9°
Exits shadow 00:51:25 14° 148° (SSE) 3,459 10.4 -16.9°
Maximum altitude 00:54:11 16° 128° (SE) 3,304 10.4 -16.9°
Drops below altitude 10° 00:59:08 10° 96° (E) 3,716 11.0 -16.8°
Sets 01:03:45 0° 76° (ENE) 4,682 11.8 -16.8°
